This is the latest recevied weather packets stored in our database for station/object OE2ATN. If no packets are shown the sender has not sent any weather packets the latest 10 day(s).
| Time | Temp. | Humidity | Pressure | Rain* | Wind** | Luminosity | Snow |
|---|---|---|---|---|---|---|---|
| 1778026507 | 7.78° C | 74% | 1017.1 hPa | 0 mm | - | - | - |
| 1778026207 | 7.78° C | 74% | 1017.1 hPa | 0 mm | - | - | - |
| 1778025907 | 7.78° C | 73% | 1017.2 hPa | 0 mm | - | - | - |
| 1778025607 | 7.22° C | 74% | 1017.2 hPa | 0 mm | - | - | - |
| 1778025306 | 7.78° C | 74% | 1017.1 hPa | 0 mm | - | - | - |
| 1778025006 | 7.78° C | 75% | 1017.3 hPa | 0 mm | - | - | - |
| 1778024706 | 7.78° C | 75% | 1017.3 hPa | 0 mm | - | - | - |
| 1778024407 | 7.78° C | 75% | 1017.3 hPa | 0 mm | - | - | - |
| 1778024109 | 7.78° C | 75% | 1017.4 hPa | 0 mm | - | - | - |
| 1778023806 | 7.78° C | 75% | 1017.4 hPa | 0 mm | - | - | - |
| 1778023507 | 8.33° C | 74% | 1017.3 hPa | 0 mm | - | - | - |
| 1778023207 | 8.89° C | 74% | 1017.2 hPa | 0 mm | - | - | - |
| 1778022906 | 8.89° C | 75% | 1017.2 hPa | 0 mm | - | - | - |
| 1778022606 | 8.89° C | 75% | 1017.3 hPa | 0 mm | - | - | - |
| 1778022307 | 8.33° C | 75% | 1017.2 hPa | 0 mm | - | - | - |
| 1778022007 | 8.33° C | 75% | 1017.2 hPa | 0 mm | - | - | - |
| 1778021707 | 8.33° C | 75% | 1017.2 hPa | 0 mm | - | - | - |
| 1778021406 | 8.33° C | 75% | 1017.1 hPa | 0 mm | - | - | - |
| 1778021106 | 8.89° C | 75% | 1017.1 hPa | 0 mm | - | - | - |
| 1778020806 | 8.89° C | 74% | 1017.1 hPa | 0 mm | - | - | - |
| 1778020507 | 8.89° C | 74% | 1017 hPa | 0 mm | - | - | - |
| 1778020206 | 8.89° C | 74% | 1017 hPa | 0 mm | - | - | - |
| 1778019906 | 8.89° C | 74% | 1017 hPa | 0 mm | - | - | - |
| 1778019607 | 9.44° C | 74% | 1017 hPa | 0 mm | - | - | - |
| 1778019306 | 8.89° C | 75% | 1017 hPa | 0 mm | - | - | - |
* Rain latest hour (hover to see other rain measurements)
** Current wind speed in m/s (hover to see current wind gust speed)